Find Starlink 11471

NORAD ID: 62225 Int'l Des: 2024-231 Owner: SPXS Country: US Constellation: starlink operational
LEOCIRCULAR

Live Position

Loading 3D Globe...

About Starlink 11471

Description loading...

Upcoming Passes

Passes for default location (London). Set your location on the main map for personalized predictions.

Altitude History

Loading altitude history...

Two-Line Element Set

1 62225U 24231H 26127.13315980 .00144808 00000-0 11761-2 0 9990
2 62225 53.1573 172.9559 0001207 146.1934 213.9161 15.69776610 82594
Epoch: May 7, 2026 • Age: 9 hours

Current Status

Altitude 370.8 km
Velocity 7.69 km/s
Sub-Earth Point -36.39°S, 17.85°W
Launch Date Dec 5, 2024
Age 1.4 years
Type internet

Technical Details

Classification Payload
Mass 960.00 kg
Dry Mass 910.00 kg
Total Mass 960.00 kg
Length 0.30 m
Diameter 4.10 m
Span 29.00 m
Shape Box + pan
Manufacturer SPXS
Bus Type Starlink V2MD
Phase Status In Orbit
Owner/State SPXS/US

Most Searched